STARLINK-11453, 62411

Orbit data source: Space-Track

STARLINK-11453, 62411 is a payload satellite owned by SpaceX/Seattle (US) in LEO that was launched on Mon, 23 Dec 2024 UTC via an FALCON 9 launch vehicle from the Air Force Eastern Test Range (AFETR). Payload-class satellites include a variety of spacecraft equipped with specific instruments for various scientific and technological missions. These include communications satellites like Starlink; space stations such as the ISS; scientific satellites like the Hubble; Earth observation satellites from companies like Planet Labs, Umbra, and HawkEye 360; GPS; miniature CubeSats for education and research; and military/defense satellites.

Loading next visibility...
Identifier
62411, 2024-249C
Orbit
LEO
Country
Flag of USUS
Related business
Manufacturer
SpaceX/Seattle
Mission
Operational Commercial Communications
Bus & Motor
STARLINK V2MD, Unknown motor
Mass
960 kg wet, ~910 kg dry
Launch date (UTC)
2024-12-23 (1 year ago)
Launch vehicle
FALCON 9
Launch site
Air Force Eastern Test Range (AFETR)
Object type
Payload
Rocket body
Debris
Shape & HBR
Box + 2 Pan, 18.1 m
Radar Cross Section
36.964 m², Large (>1 m²)

Expand to show TLE details & history
Last TLE update: 1 day ago

TLE from 1 day ago
0 STARLINK-11453
1 62411U 24249C   26170.56482990  .00171454  00000-0  13105-2 0  9998
2 62411  43.0005 273.5250 0000784 232.1215 127.9582 15.70872592 85505
Epoch: 2026-06-19T13:33Z
TLE epoch observation values (Epoch: 2026-06-19T13:33:21.303Z)
Latitude
-0°
Longitude
162.39425°
Altitude
356.498 km
Speed
7.697 km/s
True Right ascension
18h 14m 05s
True Declination
0° 00' 00"
Sunlit
Object was in full shadow at epoch
Visualization orbit readout
Latitude
Unknown
Longitude
Unknown
Altitude
Unknown
Speed
Unknown
Apparent Right ascension
Unknown
Apparent Declination
Unknown
Sunlit
N/A
Visualization observer readout
Local Sidereal Time
07:18:13
Azimuth
Unknown
Elevation
Unknown
Doppler factor
Unknown
Orbital elements
Apogee altitude
358.912 km
Perigee altitude
357.855 km
Semi-major axis
6,736.52 km
Eccentricity
0.00008
Inclination
43.0005°
RAAN
273.525°
Arg. of periapsis
232.1215°
True anomaly
127.96528°
Mean anomaly
127.9582°
Eccentric anomaly
127.96174°
Mean motion
3.92545 °/min
Orbital period
91.71 mins
BSTAR
0.0013105
Loading maneuver chart data...
Computing Atmospheric mass density...
Loading historical data...
Loading historical data...
Loading historical data...
Loading historical data...
Loading historical data...
Loading historical data...
Loading historical data...

Documentation

Showing up to 5 results
|